Tizayuca Airport

Jump to: basic info | weather | runways | comments

Related pages: nearby airports | nearby navaids | notams | map

Basic information (top)

Codes: MM28
Location: lon 19.874001, lat -98.943604, elev 7,600 ft / 2,316 m msl
Status: small_airport

Weather (top)

Current conditions for Licenciado Benito Juarez International Airport 27nm (50km) SSW (rec'd 2014/10/31 05:42Z):

MMMX 310542Z 31005KT 8SM SKC 13/07 A3039 NOSIG RMK SLP148 52003 900 HZY AC

Airport forecast for Licenciado Benito Juarez International Airport 27nm (50km) SSW (rec'd 2014/10/31 06:39Z):

TAF MMMX 310532Z 3106/0112 33005KT P6SM SCT080 TX24/3121Z TN08/3112Z 
      TEMPO 3110/3114 3SM BR HZ BKN015 
     FM311600 03005KT P6SM SCT020 
     FM312100 03010KT P6SM SCT020 
     FM010300 03005KT P6SM SCT015

Runways (top)

01/19: 4,235 x 80 ft (1,291 x 24 m) — paved — not lighted

Latest comments (top)

No comments yet for Tizayuca Airport

More... (top)

See also NOTAMs and nearby airports and navaids, or visit the Tizayuca Airport page at the main OurAirports website..